Change the Weather History Date:

Friday, February 22, 2013

  Actual Average Record
Temperature  
Mean Temperature 58 °F -  
Max Temperature 63 °F 64 °F 75 °F (1999)
Min Temperature 53 °F 47 °F 35 °F (2005)
Degree Days  
Heating Degree Days 7    
Growing Degree Days 8 (Base 50)    
Moisture  
Dew Point 54 °F    
Average Humidity 87    
Maximum Humidity 100    
Minimum Humidity 59    
Precipitation  
Precipitation 0.31 in 0.08 in - ()
Sea Level Pressure  
Sea Level Pressure 29.81 in    
Wind  
Wind Speed 2 mph ()    
Max Wind Speed 10 mph    
Max Gust Speed 15 mph    
Visibility 6.1 miles    
Events Rain    
Averages and records for this station are not official NWS values.
T = Trace of Precipitation, MM = Missing Value Source: Averaged Metar Reports

Daily Weather History Graph

Daily Weather History Graph

Search for Another Location

Airport or City:

Trip Planner

Search our weather history database for the weather conditions in past years. The results will help you decide how hot, cold, wet, or windy it might be!

Date:

Astronomy

Feb. 22, 2013 Rise Set
Actual Time 7:57 AM CET 7:05 PM CET
Civil Twilight 7:31 AM CET 7:31 PM CET
Nautical Twilight 7:01 AM CET 8:01 PM CET
Astronomical Twilight 6:31 AM CET 8:31 PM CET
Moon 4:06 PM CET (2/22) 5:30 AM CET (2/22)
Length of Visible Light 12h 00m
Length of Day
11h 07m
Waxing Gibbous, 88% of the Moon is Illuminated
Feb 22
Waxing Gibbous
Feb 25
Full
Mar 4
Last Quarter
Mar 11
New
Mar 19
First Quarter

Hourly Weather History & Observations

Time (CET) Temp. Dew Point Humidity Pressure Visibility Wind Dir Wind Speed Gust Speed Precip Events Conditions
12:00 AM 59.0 °F 55.4 °F 88% 29.89 in 6.2 mi Variable 1.2 mph - N/A   Mostly Cloudy
12:30 AM 59.0 °F 55.4 °F 88% 29.89 in 6.2 mi Calm Calm - N/A   Mostly Cloudy
1:00 AM 59 °F 54 °F 80% 29.90 in 12 mi Calm Calm - -   Partly Cloudy
1:00 AM 57.2 °F 55.4 °F 94% 29.89 in 6.2 mi Calm Calm - N/A   Mostly Cloudy
1:30 AM 57.2 °F 55.4 °F 94% 29.89 in 6.2 mi Calm Calm - N/A   Mostly Cloudy
2:00 AM 57.2 °F 55.4 °F 94% 29.86 in 6.2 mi Calm Calm - N/A   Mostly Cloudy
2:30 AM 57.2 °F 55.4 °F 94% 29.86 in 6.2 mi Variable 2.3 mph - N/A   Mostly Cloudy
3:00 AM 57.2 °F 55.4 °F 94% 29.86 in 6.2 mi Calm Calm - N/A   Mostly Cloudy
3:30 AM 57.2 °F 55.4 °F 94% 29.86 in 6.2 mi Variable 1.2 mph - N/A   Mostly Cloudy
4:00 AM 57.2 °F 55.4 °F 94% 29.86 in 6.2 mi West 3.5 mph - N/A   Mostly Cloudy
4:30 AM 57.2 °F 55.4 °F 94% 29.86 in 6.2 mi Calm Calm - N/A Rain Light Rain Showers
5:00 AM 55.4 °F 55.4 °F 100% 29.83 in 6.2 mi Calm Calm - N/A   Mostly Cloudy
5:30 AM 55.4 °F 55.4 °F 100% 29.83 in 6.2 mi Variable 1.2 mph - N/A   Mostly Cloudy
6:00 AM 55.4 °F 55.4 °F 100% 29.83 in 6.2 mi SSW 3.5 mph - N/A   Mostly Cloudy
6:30 AM 57.2 °F 55.4 °F 94% 29.86 in 6.2 mi Calm Calm - N/A Rain Light Rain Showers
7:00 AM 57 °F 56 °F 93% 29.87 in 12 mi NNW 4.6 mph - - Rain Light Rain Showers
7:00 AM 57.2 °F 55.4 °F 94% 29.86 in 6.2 mi NNW 4.6 mph - N/A   Mostly Cloudy
7:30 AM 55.4 °F 55.4 °F 100% 29.86 in 6.2 mi Variable 1.2 mph - N/A   Mostly Cloudy
8:00 AM 55.4 °F 55.4 °F 100% 29.86 in 6.2 mi Calm Calm - N/A   Mostly Cloudy
8:30 AM 57.2 °F 55.4 °F 94% 29.86 in 6.2 mi SSW 3.5 mph - N/A   Mostly Cloudy
9:00 AM 57.2 °F 55.4 °F 94% 29.86 in 6.2 mi South 2.3 mph - N/A   Mostly Cloudy
9:30 AM 57.2 °F 55.4 °F 94% 29.86 in 6.2 mi South 1.2 mph - N/A   Mostly Cloudy
10:00 AM 57.2 °F 55.4 °F 94% 29.86 in 6.2 mi Calm Calm - N/A   Mostly Cloudy
10:30 AM 59.0 °F 55.4 °F 88% 29.86 in 6.2 mi Calm Calm - N/A   Mostly Cloudy
11:00 AM 60.8 °F 55.4 °F 82% 29.86 in 6.2 mi Calm Calm - N/A   Mostly Cloudy
11:30 AM 59.0 °F 53.6 °F 82% 29.86 in 6.2 mi East 3.5 mph - N/A   Mostly Cloudy
12:00 PM 59.0 °F 53.6 °F 82% 29.86 in 6.2 mi Variable 2.3 mph 15.0 mph N/A Rain Light Rain
12:09 PM 59.0 °F 55.4 °F 88% 29.83 in 3.1 mi Variable 2.3 mph - N/A Rain Light Rain Showers
12:30 PM 59.0 °F 55.4 °F 88% 29.83 in 5.0 mi NE 4.6 mph - N/A   Mostly Cloudy
1:00 PM 60 °F 54 °F 74% 29.85 in 4 mi ENE 6.9 mph - - Rain Light Rain
1:00 PM 59.0 °F 55.4 °F 88% 29.83 in 4.3 mi ENE 6.9 mph - N/A Rain Light Rain
1:12 PM 59.0 °F 55.4 °F 88% 29.83 in 3.7 mi ENE 4.6 mph - N/A Rain Rain
1:30 PM 57.2 °F 55.4 °F 94% 29.80 in 2.5 mi ENE 6.9 mph - N/A Rain Rain
1:31 PM 57.2 °F 55.4 °F 94% 29.83 in 2.5 mi ENE 6.9 mph - N/A Rain Heavy Rain
1:43 PM 57.2 °F 55.4 °F 94% 29.80 in 3.7 mi East 5.8 mph - N/A Rain Rain
2:00 PM 57.2 °F 55.4 °F 94% 29.80 in 6.2 mi NE 5.8 mph - N/A Rain Light Rain
2:30 PM 59.0 °F 55.4 °F 88% 29.77 in 6.2 mi ENE 3.5 mph - N/A   Scattered Clouds
3:00 PM 59.0 °F 55.4 °F 88% 29.77 in 6.2 mi East 4.6 mph - N/A   Scattered Clouds
4:00 PM 60.8 °F 55.4 °F 82% 29.74 in 6.2 mi North 1.2 mph - N/A   Mostly Cloudy
4:30 PM 60.8 °F 55.4 °F 82% 29.71 in 6.2 mi Variable 2.3 mph - N/A   Mostly Cloudy
5:00 PM 60.8 °F 55.4 °F 82% 29.71 in 6.2 mi ESE 3.5 mph - N/A   Mostly Cloudy
5:30 PM 62.6 °F 48.2 °F 59% 29.71 in 6.2 mi WSW 10.4 mph - N/A   Mostly Cloudy
6:00 PM 62.6 °F 50.0 °F 63% 29.71 in 6.2 mi WSW 6.9 mph - N/A   Mostly Cloudy
6:05 PM 60.8 °F 51.8 °F 72% 29.74 in 4.3 mi West 6.9 mph - N/A Rain Rain
6:30 PM 57.2 °F 53.6 °F 88% 29.74 in 4.3 mi WNW 5.8 mph - N/A Rain Light Rain
7:00 PM 58 °F 52 °F 75% 29.73 in 12 mi NNW 2.3 mph - - Rain Light Rain
7:00 PM 57.2 °F 53.6 °F 88% 29.71 in 6.2 mi Variable 2.3 mph - N/A   Mostly Cloudy
7:30 PM 57.2 °F 53.6 °F 88% 29.74 in 6.2 mi Variable 1.2 mph - N/A Rain Light Rain
8:00 PM 55.4 °F 53.6 °F 94% 29.74 in 6.2 mi Variable 2.3 mph - N/A Rain Light Rain
8:30 PM 55.4 °F 48.2 °F 77% 29.74 in 6.2 mi WNW 9.2 mph - N/A   Scattered Clouds
9:00 PM 55.4 °F 46.4 °F 72% 29.74 in 6.2 mi WSW 8.1 mph - N/A   Scattered Clouds
9:30 PM 53.6 °F 46.4 °F 77% 29.74 in 6.2 mi Calm Calm - N/A   Scattered Clouds
10:00 PM 55.4 °F 44.6 °F 67% 29.74 in 6.2 mi WSW 8.1 mph - N/A   Scattered Clouds
10:30 PM 53.6 °F 46.4 °F 77% 29.74 in 6.2 mi Variable 2.3 mph - N/A   Scattered Clouds
11:00 PM 53.6 °F 46.4 °F 77% 29.74 in 6.2 mi Variable 1.2 mph - N/A   Scattered Clouds
11:30 PM 53.6 °F 46.4 °F 77% 29.77 in 6.2 mi Variable 2.3 mph - N/A   Mostly Cloudy